Location: Leeds
(51.2333°N, 0.6167°E)
Time: 23:47:45
(UTC+00:00)

Daily predictions for brighter satellites

Satellite Brightness Start Highest point End
(mag) Time Altitude Azimuth Time Altitude Azimuth Time Altitude Azimuth
NOSS 2-1 (E) 4.3 17:52:17 10° NW 17:56:49 56° NE 18:03:11 10° ESE
Cosmos 2369 4.2 17:54:16 10° S 17:59:27 39° ESE 18:04:41 10° NE
Feng Yun 1-1 Rocket 4.5 17:56:42 10° SSE 18:02:33 88° ENE 18:08:31 10° NNW
Cosmos 1607 4.1 17:56:54 10° SSW 18:03:11 62° ESE 18:09:35 10° NE
Cosmos 2369 Rocket 4.5 18:00:26 10° WNW 18:03:45 16° NNW 18:07:04 10° N
Meteor 1-10 Rocket 4.3 17:58:23 10° N 18:04:12 76° ENE 18:09:52 10° SSE
SeaSat 1 3.2 18:00:48 10° NE 18:05:13 32° ESE 18:09:37 10° S
Cosmos 2263 Rocket 2.7 18:01:23 10° NNW 18:06:38 39° NE 18:11:49 10° ESE
SKYMED 2 3.6 18:02:48 10° NNE 18:07:09 65° ESE 18:11:28 10° S
USA 307 4.5 18:04:02 10° S 18:07:10 20° SE 18:10:18 10° E
CZ-4 R/B 1.4 18:04:11 10° SSE 18:07:56 54° ENE 18:11:45 10° N
Cosmos 1420 Rocket 4.1 18:03:35 10° SSW 18:08:54 88° WNW 18:14:17 10° NNE
USA 306 4.3 18:10:06 10° S 18:13:28 23° SE 18:16:44 10° E
Cosmos 2227 Rocket 3.5 18:09:03 10° NW 18:14:27 46° WSW 18:19:48 10° S
USA 308 4.3 18:13:57 10° S 18:17:21 23° SE 18:20:26 11° E
Cosmos 1939 Rocket 4.3 18:13:47 10° S 18:17:28 42° W 18:21:10 10° NNW
H-2A R/B 2.9 18:15:47 10° N 18:19:48 52° WNW 18:23:47 10° SW
Cosmos 1743 Rocket 3.5 18:15:57 10° S 18:20:17 71° E 18:24:42 10° NNE
Cosmos 1850 Rocket 4.2 18:15:53 10° NNW 18:21:05 77° WSW 18:26:16 10° SSE
Cosmos 1805 Rocket 4.0 18:17:20 10° SSE 18:21:24 40° E 18:25:32 10° NNE
Meteor 1-27 Rocket 3.6 18:18:34 10° N 18:24:07 69° ENE 18:29:37 10° SSE
Cosmos 2228 Rocket 3.1 18:22:40 10° N 18:27:16 86° E 18:31:46 10° S
H-2A R/B 2.2 18:22:19 10° SSE 18:27:44 82° ENE 18:33:14 10° NNW
ARGOS 3.2 18:23:15 10° SSE 18:28:35 62° ENE 18:33:57 10° N
Cosmos 1862 3.5 18:25:08 10° SSW 18:29:09 79° W 18:33:14 10° N
Cosmos 1271 Rocket 3.3 18:26:29 10° N 18:29:55 33° ENE 18:33:19 10° SE
COSMOS 2455 2.9 18:24:09 10° NW 18:30:13 85° NE 18:36:15 10° SE
SJ-6B 4.2 18:28:38 12° ESE 18:31:16 21° ENE 18:34:22 10° NNE
Cosmos 2297 Rocket 4.5 18:26:59 10° NW 18:31:44 28° WSW 18:36:28 10° SSW
Cosmos 2278 4.0 18:26:28 10° S 18:31:47 44° ESE 18:37:10 10° NE
FALCON 9 DEB 4.3 18:29:15 10° SSW 18:31:54 24° SE 18:33:29 17° ESE
OBJECT-B 2.8 18:32:13 13° ENE 18:32:13 13° ENE 18:33:47 10° NNE
SL-08 RB Rocket 3.9 18:29:05 10° SE 18:33:22 46° ENE 18:37:43 10° N
Cosmos 1812 4.0 18:32:15 10° NNW 18:35:56 44° W 18:39:35 10° SSW
GP-B 4.4 18:33:07 11° ESE 18:35:57 19° ENE 18:39:07 10° NNE
HJ-1C 3.3 18:32:48 10° SSE 18:36:04 59° ENE 18:39:22 10° N
Okean 1 4.5 18:33:16 10° NNE 18:36:33 23° ENE 18:38:49 15° ESE
CZ-2C R/B 3.2 18:31:52 10° NNE 18:37:04 38° E 18:42:06 10° SSE
Cosmos 1689 Rocket 2.3 18:34:45 10° NNE 18:37:31 42° E 18:40:16 10° S
Cosmos 44 Rocket 4.4 18:33:05 10° NNW 18:37:49 33° NNE 18:41:14 17° E
FALCON 9 DEB 3.2 18:34:39 10° W 18:38:05 72° N 18:40:28 19° ENE
Cosmos 2278 Rocket 4.3 18:39:22 10° N 18:41:14 11° NNE 18:43:07 10° NE
Cosmos 1862 Rocket 4.4 18:37:32 10° N 18:41:34 31° ENE 18:45:33 10° SE
CSL-04 Debris 4.1 18:36:27 10° SSE 18:41:50 71° ENE 18:47:17 10° NNW
ATLAS 5 CENTAUR R/B 3.3 18:26:44 10° SW 18:42:40 86° SE 18:46:35 12° NE
Cosmos 2084 3.7 18:38:45 10° SSW 18:42:49 49° SE 18:46:18 14° NE
Cosmos 1666 Rocket 4.2 18:39:28 10° SSE 18:43:21 33° E 18:47:14 10° NNE
Cosmos 1844 Rocket 3.9 18:39:55 10° NNW 18:44:22 24° NE 18:47:04 17° ENE
Cosmos 1709 Rocket 4.2 18:38:14 10° SSW 18:44:24 79° WNW 18:50:40 10° N
BREEZE-M DEB (TANK) 2.1 18:42:28 10° SW 18:44:35 44° SSE 18:46:17 21° E
CZ-2C R/B 4.4 18:39:03 10° S 18:44:38 48° W 18:50:06 10° NNW
Cosmos 2181 Rocket 4.1 18:38:15 10° N 18:44:45 87° W 18:51:12 10° S
NOSS 2-1 (C) 4.3 18:40:39 10° NW 18:45:23 78° SW 18:52:06 10° SE
Gbstr 26 Del rocket 4.2 18:42:49 10° SSW 18:46:46 31° SE 18:49:30 19° E
Cosmos 1331 Rocket 4.1 18:41:57 10° S 18:47:05 54° ESE 18:52:13 10° NNE
TSX-5 4.0 18:43:40 10° NW 18:48:30 82° WSW 18:52:15 10° SSE
CSL-04 Rocket 3.7 18:43:41 10° SSE 18:49:13 76° ENE 18:54:46 10° NNW
Cosmos 292 Rocket 3.7 18:45:29 10° SSW 18:50:14 84° ESE 18:55:02 10° NNE
NOSS 2-1 (D) 4.4 18:46:44 10° NW 18:51:31 72° SW 18:58:15 10° SSE
COSMO-SKYMED 1 3.8 18:51:02 10° N 18:55:12 45° WNW 18:59:21 10° SW
FALCON 9 DEB 3.8 18:53:24 10° SSW 18:56:18 32° SSE 18:56:59 29° ESE
YAOGAN 1 3.3 18:53:37 10° S 18:57:52 55° W 19:02:08 10° NNW
Helios 1A Rocket 3.0 18:54:13 10° SSE 18:58:17 81° WSW 19:02:23 10° NNW
Okean-O 3.4 18:54:52 10° S 18:59:13 56° W 19:03:36 10° NNW
Cosmos 220 Rocket 3.8 18:57:49 10° SSW 19:02:00 72° ESE 19:06:16 10° NNE
SL-4 R/B 1.7 18:58:35 10° WSW 19:02:05 60° SSE 19:03:19 35° E
FALCON 9 DEB 3.4 19:01:40 10° SW 19:04:39 41° SSE 19:05:10 38° ESE
APEX 2.7 19:02:16 10° NNW 19:05:21 49° NE 19:05:43 45° E
Lacrosse 5 rocket 3.4 19:02:25 10° WNW 19:06:09 27° SW 19:09:44 10° S
Cosmos 1980 Rocket 2.1 19:01:20 10° SSW 19:06:59 80° ESE 19:12:43 10° NNE
CZ-4B R/B 3.7 19:06:31 10° NNW 19:09:02 23° WNW 19:11:30 10° WSW
Sich 1 3.0 19:05:15 10° S 19:09:37 90° WSW 19:14:04 10° N
Cosmos 2084 Rocket 4.4 19:07:48 10° NW 19:11:43 34° NNE 19:12:58 28° ENE
Cosmos 2227 4.3 19:08:45 10° NNW 19:14:34 85° WSW 19:20:20 10° SSE
Cosmos 1302 Rocket 4.1 19:10:10 10° S 19:15:08 49° ESE 19:20:09 10° NNE
Cosmos 968 Rocket 3.5 19:10:40 10° NNW 19:15:54 63° ENE 19:19:11 23° SE
Cosmos 2322 Rocket 3.4 19:12:12 10° SSE 19:15:03 22° SE 19:15:03 22° SE
Cosmos 1437 3.4 19:15:03 10° NNW 19:17:52 48° W 19:20:40 10° S
Cosmos 1707 Rocket 3.8 19:13:55 10° NNW 19:18:21 71° W 19:22:42 10° S
Cosmos 1503 Rocket 4.5 19:17:28 10° NNW 19:22:26 41° NE 19:23:43 35° E
ERS-2 2.9 19:19:01 10° N 19:22:35 53° WNW 19:26:09 10° SSW
Cosmos 1867 3.5 19:18:27 10° SSW 19:23:52 76° SE 19:28:06 17° NE
Cosmos 724 4.4 19:19:15 10° SW 19:25:20 87° NW 19:31:37 10° NE
Cosmos 1633 Rocket 2.9 19:21:21 10° S 19:25:44 71° E 19:30:10 10° NNE
Meteor 1-22 4.5 19:22:48 10° S 19:28:13 85° E 19:33:36 10° NNE
Meteor 1-20 Rocket 4.0 19:24:14 10° S 19:29:41 80° E 19:35:11 10° NNE
Cosmos 1697 Rocket 3.8 19:26:06 10° WSW 19:31:31 45° NW 19:36:58 10° NNE
Cosmos 1110 Rocket 4.4 19:27:24 10° SW 19:32:42 66° WNW 19:38:02 10° NNE
USA 234 3.2 19:29:23 23° ENE 19:33:46 79° SSE 19:40:19 10° SW
SL-16 R/B 2.4 19:30:38 10° S 19:35:58 43° ESE 19:37:13 38° ENE
Meteor 1-19 Rocket 4.3 19:30:26 10° NNW 19:36:30 86° ENE 19:42:25 10° SSE
USA 305 2.8 19:34:33 10° SW 19:38:49 69° SSE 19:39:13 63° ESE
SeaSat 1 3.3 19:38:07 10° NNE 19:42:54 51° NW 19:47:40 10° SW
MOS 1 4.2 19:39:28 23° SSE 19:43:06 78° ENE 19:48:48 10° NNW
CZ-4 R/B 4.4 19:40:55 10° SW 19:43:19 16° W 19:45:45 10° NW
Cosmos 2327 Rocket 4.4 19:37:01 10° S 19:43:23 80° E 19:49:42 10° NNE
Resurs 01 Rocket 2.6 19:44:38 32° NE 19:44:38 32° NE 19:47:39 10° N
DMSP B5D2-2 3.9 19:39:30 10° NNE 19:44:48 84° ESE 19:50:02 10° SSW
Ariane Rocket 2.9 19:43:24 31° SSE 19:45:53 81° ENE 19:51:02 10° NNW
USA 307 2.7 19:42:23 10° WSW 19:46:39 72° SSE 19:46:43 72° SE
Nadezhda 3 Rocket 4.1 19:40:46 10° NNW 19:47:07 81° W 19:53:29 10° S
Okean 1-7 3.8 19:43:44 10° N 19:46:54 38° NNE 19:46:54 38° NNE
FALCON 9 DEB 4.3 19:45:38 10° WSW 19:47:39 35° SW 19:47:39 35° SW
Cosmos 2154 Rocket 3.9 19:43:42 10° S 19:49:57 87° E 19:56:12 10° N
Cosmos 2263 Rocket 3.1 19:45:22 10° NW 19:50:39 46° WSW 19:55:56 10° S
Cosmos 2242 Rocket 3.7 19:46:11 10° N 19:50:16 56° NE 19:50:16 56° NE
IRS-1A Rocket 4.2 19:47:27 22° SSE 19:51:13 90° W 19:56:52 10° NNW
USA 306 2.8 19:48:43 10° WSW 19:52:52 78° S 19:52:52 78° S
Cosmos 1515 4.4 19:52:19 10° NNW 19:56:04 53° W 19:57:16 36° SSW
ASTEX 1 4.1 19:51:41 10° NNE 19:54:53 37° NE 19:54:53 37° NE
USA 308 2.9 19:52:38 10° WSW 19:56:36 73° SSW 19:56:36 73° SSW
Cosmos 1470 Rocket 3.4 19:53:20 10° S 19:57:49 85° E 20:02:20 10° NNE
Meteor 1-14 Rocket 4.0 19:54:48 10° S 20:00:23 71° E 20:05:55 10° NNE
OBJECT-B 2.5 20:05:18 30° NW 20:05:18 30° NW 20:07:12 10° NNW
SJ-6B 3.7 20:04:14 35° SSW 20:05:36 51° W 20:09:38 10° NNW
Cosmos 1703 Rocket 4.1 20:01:50 10° N 20:05:12 49° N 20:05:12 49° N
Meteor 2-4 Rocket 3.7 20:04:14 10° NNW 20:10:00 87° WSW 20:11:52 46° S
GP-B 3.7 20:10:27 25° SSW 20:12:52 55° W 20:17:16 10° N
Cosmos 1461 4.3 20:11:09 10° SSW 20:13:50 34° SSW 20:13:50 34° SSW
BREEZE-M DEB (TANK) 4.4 19:58:26 10° W 20:16:04 62° S 20:17:22 52° SE
Cosmos 1932 4.3 20:10:42 10° SSW 20:17:09 75° SE 20:18:17 60° ENE
CZ-2C R/B 3.9 20:12:11 10° N 20:17:23 41° WNW 20:22:29 10° SW
Cosmos 1844 3.7 20:12:18 10° NNW 20:17:59 67° NE 20:17:59 67° NE
Cosmos 44 Rocket 3.5 20:14:35 10° NW 20:19:49 71° SW 20:19:59 71° SW
USA 281 4.2 20:22:43 31° NE 20:22:43 31° NE 20:28:15 10° NNW
Meteor 1-13 Rocket 4.3 20:17:06 10° N 20:22:47 69° NE 20:22:47 69° NE
Resurs 1-3 4.3 20:27:55 53° WNW 20:27:55 53° WNW 20:31:47 10° NNW
Cosmos 2278 Rocket 3.6 20:22:40 10° NNW 20:26:30 26° NNE 20:26:30 26° NNE
Cosmos 1844 Rocket 2.6 20:23:25 10° NNW 20:28:45 81° NNW 20:28:45 81° NNW
Gbstr 26 Del rocket 3.9 20:28:22 10° WSW 20:32:04 55° WSW 20:32:04 55° WSW
SPOT 3 Rocket 3.7 20:34:12 71° NW 20:34:12 71° NW 20:38:57 10° NNW
Cosmos 2341 Rocket 4.0 20:31:11 28° SSW 20:34:47 83° W 20:41:08 10° N
SL-8 Rocket 4.0 20:37:29 68° NNE 20:37:29 68° NNE 20:42:54 10° NNE
SL-4 R/B 4.5 20:38:07 10° W 20:38:54 16° W 20:38:54 16° W
Cosmos 1980 Rocket 4.1 20:46:53 10° W 20:51:39 27° NW 20:56:27 10° NNE
Cosmos 2322 Rocket 3.8 20:54:47 10° SW 20:57:04 25° SW 20:57:04 25° SW
Cosmos 1727 Rocket 4.4 20:54:41 10° N 20:59:28 56° N 20:59:28 56° N
Cosmos 2218 Rocket 4.5 21:05:44 55° N 21:05:44 55° N 21:10:42 10° N
SJ 16-02 4.0 21:08:09 10° NNW 21:08:49 14° NNW 21:08:49 14° NNW
Terra 4.3 21:16:28 15° N 21:16:28 15° N 21:17:17 10° N
USA 234 3.6 21:16:44 60° NNW 21:16:44 60° NNW 21:23:06 10° W
Cosmos 1943 Rocket 4.4 21:15:30 10° NNW 21:17:50 16° NNE 21:17:50 16° NNE
SL-16 R/B 3.4 21:14:46 10° WSW 21:19:19 39° WNW 21:19:19 39° WNW
Resurs 01 Rocket 4.0 21:22:11 20° NW 21:22:11 20° NW 21:24:01 10° NNW
USA 281 4.4 22:09:35 36° NNW 22:09:35 36° NNW 22:13:16 10° NNW
Cosmos 2278 Rocket 4.3 22:06:29 10° NNW 22:08:22 22° NW 22:08:22 22° NW
